STARLINK-34199

Last updated on Tue Aug 26 2025 00:02:05 GMT+0000 (Coordinated Universal Time)

1 64924U 25157W 25237.58336806 .00024316 00000+0 61574-3 0 9994 2 64924 53.1613 187.6472 0001898 111.0416 221.9746 15.39629637 5985

Satellite not in orbit

STARLINK-34199